STARLINK-32937, 63148

Orbit data source: Space-Track

STARLINK-32937, 63148 is a payload satellite owned by SpaceX/Seattle (US) in LEO that was launched on Mon, 03 Mar 2025 UTC via an FALCON 9 launch vehicle from the Air Force Eastern Test Range (AFETR). Payload-class satellites include a variety of spacecraft equipped with specific instruments for various scientific and technological missions. These include communications satellites like Starlink; space stations such as the ISS; scientific satellites like the Hubble; Earth observation satellites from companies like Planet Labs, Umbra, and HawkEye 360; GPS; miniature CubeSats for education and research; and military/defense satellites.

Loading next visibility...
Identifier
63148, 2025-043S
Orbit
LEO
Country
Flag of USUS
Related business
Manufacturer
SpaceX/Seattle
Mission
Operational Commercial Communications
Bus & Motor
STARLINK V2M, Unknown motor
Mass
730 kg wet, ~700 kg dry
Launch date (UTC)
2025-03-03 (2 years ago)
Launch vehicle
FALCON 9
Launch site
Air Force Eastern Test Range (AFETR)
Object type
Payload
Rocket body
Debris
Shape & HBR
Box + 2 Pan, 17.7 m
Radar Cross Section
33.884 m², Large (>1 m²)

Expand to show TLE details & history
Last TLE update: 11 hours ago

TLE from 11 hours ago
0 STARLINK-32937
1 63148U 25043S   26255.89485628  .00017514  00000-0  64418-3 0  9990
2 63148  43.0010  38.9346 0001454 273.3180  86.7505 15.27594599 85991
Epoch: 2026-09-12T21:28Z
TLE epoch observation values (Epoch: 2026-09-12T21:28:35.582Z)
Latitude
-0.00004°
Longitude
84.88899°
Altitude
482.725 km
Speed
7.626 km/s
True Right ascension
02h 35m 44s
True Declination
0° 00' 00"
Sunlit
Object was in full shadow at epoch
Visualization orbit readout
Latitude
Unknown
Longitude
Unknown
Altitude
Unknown
Speed
Unknown
Apparent Right ascension
Unknown
Apparent Declination
Unknown
Sunlit
N/A
Visualization observer readout
Local Sidereal Time
00:42:02
Azimuth
Unknown
Elevation
Unknown
Doppler factor
Unknown
Orbital elements
Apogee altitude
485.948 km
Perigee altitude
483.953 km
Semi-major axis
6,863.087 km
Eccentricity
0.00015
Inclination
43.001°
RAAN
38.9346°
Arg. of periapsis
273.318°
True anomaly
86.76713°
Mean anomaly
86.7505°
Eccentric anomaly
86.75882°
Mean motion
3.81737 °/min
Orbital period
94.31 mins
BSTAR
0.00064418
Loading maneuver chart data...
Computing Atmospheric mass density...
Loading historical data...
Loading historical data...
Loading historical data...
Loading historical data...
Loading historical data...
Loading historical data...
Loading historical data...

Documentation

Showing up to 5 results
|